Regional Weather Roundup
Issued by NWS

Home | Current Version | Previous Version | Graphics & Text | Print | Product List | Glossary On
Versions: 1 2 3 4 5 6 7 8 9 10 11 12 13 14 15 16 17 18 19 20 21 22 23 24 25 26 27 28 29 30 31 32 33 34 35 36 37 38 39 40 41 42 43 44 45 46 47 48 49 50
000
ASUS43 KDMX 211406
RWRIA

WEATHER ROUNDUP FOR IOWA
NATIONAL WEATHER SERVICE DES MOINES IA
900 AM CDT SAT APR 21 2018

NOTE: "FAIR" INDICATES FEW OR NO CLOUDS BELOW 12,000 FEET WITH NO
SIGNIFICANT WEATHER AND/OR OBSTRUCTIONS TO VISIBILITY.

* - THESE STATIONS ARE NOT NWS STATIONS...THUS NOT UNDER NWS
QUALITY CONTROL.  THEY ALSO DO NOT REPORT WEATHER SUCH
AS PRECIPITATION OR FOG.

IAZ001>003-012>014-020>022-031>034-043>046-211500-
   NORTHWEST IOWA

CITY           SKY/WX    TMP DP  RH WIND       PRES   REMARKS
CARROLL *      CLOUDY    45  36  70 E7        30.35F
CHEROKEE *     CLOUDY    40  32  74 CALM      30.37R
DENISON *      CLOUDY    46  32  57 E7        30.34F
LE MARS *      CLOUDY    41  32  70 NE7       30.35S
ORANGE CITY *  CLOUDY    41  36  81 E5        30.36S
SHELDON *      CLOUDY    41  34  75 E8        30.35S
SIOUX CITY     CLOUDY    44  33  65 E6        30.33S
SPENCER        CLOUDY    39  30  70 E6        30.37S WCI  35
STORM LAKE *   CLOUDY    37  32  81 E8        30.36R WCI  31
$$

IAZ055>058-069>071-079>083-090>094-211500-
   SOUTHWEST IOWA

CITY           SKY/WX    TMP DP  RH WIND       PRES   REMARKS
ATLANTIC *     CLOUDY    46  30  53 E10       30.31F
AUDUBON *      CLOUDY    45  34  65 CALM      30.34F
CLARINDA *     CLOUDY    50  28  43 E9        30.31S
COUNCIL BLFS * CLOUDY    48  30  49 E13       30.30R
CRESTON *      CLOUDY    48  27  43 E14       30.32F
HARLAN  *      CLOUDY    46  30  53 E12       30.34F
LAMONI         CLOUDY    48  27  44 E8        30.31
RED OAK *      CLOUDY    48  28  46 N6        30.30R
SHENANDOAH *   CLOUDY    48  28  46 E6        30.30S
$$

IAZ047>049-059>061-072>074-084-211500-
   CENTRAL IOWA

CITY           SKY/WX    TMP DP  RH WIND       PRES   REMARKS
AMES           CLOUDY    48  33  56 SE7       30.38R
ANKENY *       CLOUDY    46  30  53 E6        30.38F
BOONE *        CLOUDY    48  32  53 SE12      30.36S
CHARITON *     CLOUDY    48  27  43 E13       30.34S
DES MOINES     CLOUDY    48  27  44 E7        30.37R
GRINNELL*      CLOUDY    48  28  47 E10       30.40S
KNOXVILLE *    CLOUDY    48  25  40 E7        30.36R
MARSHALLTOWN   CLOUDY    47  36  65 E8        30.38S
NEWTON *       CLOUDY    48  28  46 E9        30.38S
PELLA *        CLOUDY    48  26  41 E6        30.38S
PERRY *        PTSUNNY   44  29  55 E10       30.36S
$$

IAZ004>006-015-016-023>025-035-036-211500-
   NORTH CENTRAL IOWA

CITY           SKY/WX    TMP DP  RH WIND       PRES   REMARKS
ALGONA *       CLOUDY    39  30  70 E8        30.38S WCI  34
CLARION *      CLOUDY    41  34  75 E13       30.38F
ESTHERVILLE    CLOUDY    35  30  82 CALM      30.39R
FORT DODGE *   CLOUDY    44  37  76 E7        30.37S
MASON CITY     CLOUDY    38  32  79 SE3       30.42R
FOREST CITY *  CLOUDY    43  30  61 SE6       30.40S
WEBSTER CITY * MOSUNNY   48  36  61 E8        30.36S
IOWA FALLS *   FAIR      46  35  64 NE6       30.39F
$$

IAZ007>011-017>019-026>030-037>042-050>054-066-211500-
   NORTHEAST IOWA

CITY           SKY/WX    TMP DP  RH WIND       PRES   REMARKS
CEDAR RAPIDS   FAIR      48  30  49 E7        30.41R
CHARLES CITY *   N/A     43  34  70 CALM      30.42R
CLINTON *        N/A     46  26  45 MISG      30.44S
DECORAH *      FAIR      41  32  70 CALM      30.42R
DUBUQUE        CLOUDY    45  29  53 NE8       30.44F
MONTICELLO *   CLOUDY    46  27  46 NE5       30.43R
OELWEIN *      CLOUDY    48  36  61 SE7       30.42S
WATERLOO       FAIR      49  31  49 SE12      30.41R
$$

IAZ064-065-067-068-078-211500-
   EAST CENTRAL IOWA

CITY           SKY/WX    TMP DP  RH WIND       PRES   REMARKS
DAVENPORT      FAIR      48  23  37 SE8       30.45S
IOWA CITY      FAIR      48  28  46 SE6       30.43S
MT. PLEASANT * CLOUDY    48  27  43 SE7       30.40F
MUSCATINE *    FAIR      50  27  40 CALM      30.43S
QUAD CITIES    FAIR      49  25  39 E7        30.42S
$$

IAZ062-063-075>077-085>089-095>099-211500-
   SOUTHEAST IOWA

CITY           SKY/WX    TMP DP  RH WIND       PRES   REMARKS
BURLINGTON     CLOUDY    49  27  42 E7        30.40S
FAIRFIELD *    CLOUDY    48  27  43 E10       30.38F
FORT MADISON * CLOUDY    48  30  49 NE7       30.40F
KEOKUK *       CLOUDY    50  30  46 E9        30.38S
OSKALOOSA *    CLOUDY    45  29  54 E9        30.38F
CENTERVILLE *    N/A     48  27  43 E8        30.36F
OTTUMWA        CLOUDY    46  28  49 E9        30.37F
WASHINGTON *   CLOUDY    48  30  49 E8        30.42S
$$

ABBREVIATIONS USED IN REMARKS
   TC - TEMPERATURES IN CELSIUS
  WCI - WIND CHILL INDEX
   HX - HEAT INDEX
  VSB - VISIBILITY
$$




USA.gov is the U.S. government's official web portal to all federal, state and local government web resources and services.